Retour au catalogue

OPS 0856 DEB

LostPO
NORAD 24312·DEBRIS·🇺🇸 United States

Lancé Aug 19, 1966 depuis Vandenberg Space Force Base

Loading…

Prochains Passages (prochaines 24 heures)

TLE

PériméSource: Space-Track

Époque: Dec 2, 2012, 23:47 UTC

1 24312U 66077N   12337.99149101 +.00000003 +00000-0 +10000-3 0  9995
2 24312 089.7439 349.5203 0858811 027.1749 270.4482 08.64449957552882

Suivez OPS 0856 DEB en temps réel avec AllMySat

Download on the App Store